sat.trackr.live / text

‹ back to catalog

BRO-20

NORAD 66674 · 2025-276J

PAYLOAD ACTIVE UNKNOWN

§ Identity

Operator
Country
FR
Launch date
2025-11-28
Launch site
AFWTR
Launch vehicle
Mass (kg)
RCS (m²)

External: N2YO · Heavens-Above · Gunter

§ Orbital elements

Epoch: 2026-05-25T03:46:34.867200Z

Period
94.86 min
Inclination
97.4172°
Eccentricity
0.0008102
Mean motion
15.17990948 rev/d
Perigee alt
506.3 km
Apogee alt
517.5 km
Semi-major
6,890.1 km
B*
1.7001e-4
RAAN
218.7118°
Arg perigee
87.3617°
Mean anomaly
272.8544°
Rev number
2,690

§ Raw data

BRO-201 66674U 25276J   26145.15734800  .00003391  00000+0  17001-3 0  99942 66674  97.4172 218.7118 0008102  87.3617 272.8544 15.17990948 26904

JSON: /api/v1/satellites/66674 · /tle

For live sub-satellite position, see the globe view (requires WebGL).

§ Visibility from observer

Set your observer location to see the next 7 days of passes ≥ 10°. The values pass through the URL so the page stays shareable.

No JS? Fill the form by hand. The geolocation button needs JavaScript.

§ Radio — SatNOGS DB

ModeDescriptionDownlinkUplink
FM Telemetry 401.910 MHz

1 transmitter · refreshed weekly from db.satnogs.org